Regional Weather Roundup
Issued by NWS Mobile, AL

Home | Current Version | Previous Version | Text Only | Print | Product List | Glossary On
Versions: 1 2 3 4 5 6 7 8 9 10 11 12 13 14 15 16 17 18 19 20 21 22 23 24 25 26 27 28 29 30 31 32 33 34 35 36 37 38 39 40 41 42 43 44 45 46 47 48 49 50
000
ASUS44 KMOB 192312
RWRMOB
REGIONAL WEATHER ROUNDUP
NATIONAL WEATHER SERVICE MOBILE AL
500 PM CST THU JAN 19 2017

NOTE: "FAIR" INDICATES FEW OR NO CLOUDS BELOW 12,000 FEET WITH NO
      SIGNIFICANT WEATHER AND/OR OBSTRUCTIONS TO VISIBILITY.

  * THESE STATIONS ARE PART OF THE UNIVERSITY OF SOUTH ALABAMA
    MESONET AND ARE NOT UNDER NWS OR FAA QUALITY CONTROL.

ALZ061>064-200000-
COASTAL ALABAMA

CITY           SKY/WX    TMP DP  RH WIND       PRES   REMARKS
MOBILE REG APT CLOUDY    72  67  84 S18       29.83S
BROOKLEY FIELD CLOUDY    70  68  93 S10       29.84S
USA CAMPUS*      N/A     72  68  88 CALM      29.83S
DOG RIVER*       N/A     68  68 100 S10       30.53F


CITY           SKY/WX    TMP DP  RH WIND       PRES   REMARKS
GULF SHORES    MOCLDY    70  70 100 S9G17     29.85S

$$

ALZ051>060-200000-
INTERIOR SOUTHWEST AND SOUTH CENTRAL ALABAMA

CITY           SKY/WX    TMP DP  RH WIND       PRES   REMARKS
GREENVILLE     MOCLDY    73  62  68 S8        29.83R
EVERGREEN      MOCLDY    72  64  76 S17       29.84R
ATMORE*          N/A     70  68  94 S14       29.87R
ANDALUSIA/OPP  CLOUDY    74  63  68 S8        29.86R
ANDALUSIA*       N/A     72  64  78 SW12      29.87R
FLORALA APT    PTCLDY    71  64  78 S13G21    29.89R
FLORALA*         N/A     72  66  83 CALM      30.55R

$$

FLZ001>006-200000-
WESTERN FLORIDA PANHANDLE

CITY           SKY/WX    TMP DP  RH WIND       PRES   REMARKS
PENSACOLA      MOCLDY    72  68  87 S12       29.86R
NAS PENSACOLA  CLOUDY    71  68  90 S9        29.85F
MILTON         MOCLDY    71  67  87 S12G21    29.87R
WHTNG S FIELD  CLOUDY    74  69  85 S13       29.87R


CITY           SKY/WX    TMP DP  RH WIND       PRES   REMARKS
JAY*             N/A     72  66  83 S16       29.87R
DUKE FIELD     MOCLDY    72  66  82 S12       29.87S
CRESTVIEW      CLOUDY    72  65  78 S14       29.89R
VALPARAISO     MOCLDY    72  68  87 S13       29.89R
DESTIN         PTCLDY    74  70  87 S8        29.88S

$$

MSZ076-079-200000-
INTERIOR SOUTHEAST MISSISSIPPI

CITY           SKY/WX    TMP DP  RH WIND       PRES   REMARKS
LEAKESVILLE*   NOT AVBL
AGRICOLA*      NOT AVBL

$$

MARINE OBSERVATIONS

STATION/POSITION TIME  TEMP    WIND        PRES    WAVE
                       AIR SEA DIR/SP/G            HT/PER
                 (UTC) (F)     (DEG/KT/KT) (MB)    (FT/S)
PASCAGOULA       2248   68     170/  8/ 10 1010.0R
PETIT BOIS ISLND 2248   67     170/  9/ 11 1010.3F
GRAND BAY        2130   68     160/  9     1011.0S
KATRINA CUT      2200          170/ 15     1010.2
CEDAR POINT      2230   69     170/ 15     1010.5R
E DAUPHIN ISLAND 2300   69     160/ 11/ 13 1010.0R
MIDDLE BAY LIGHT 2200   69     150/ 16     1010.2
USCG MOBILE BAY  2248   69 66  180/ 10/ 14 1010.8R
STATE DOCKS      2248   69 63              1010.2R
MEAHER PARK      2230   71     160/ 16     1010.2R
WEEKS BAY        2130   73                   N/A
FORT MORGAN      2248   69     170/ 15/ 17   N/A
12 S ORANGE BCH  2250   70 66  170/ 12/ 14 1010.4F   3/ 5
PENSACOLA BAY    2242   71 68  190/  9/ 11 1011.2R
67 S FORT MORGAN 2230   73                 1010.8F

$$

SELECTED LOCATIONS ACROSS THE REGION

CITY           SKY/WX    TMP DP  RH WIND       PRES   REMARKS
NEW ORLEANS    CLOUDY    67  63  87 W9        29.82R
GULFPORT       LGT RAIN  66  64  93 SW6       29.82F FOG
PASCAGOULA AP  LGT RAIN  71  68  90 S7        29.84R FOG
PASCAGOULA*    NOT AVBL
HATTIESBURG    LGT RAIN  65  64  97 CALM      29.80F
LAUREL         CLOUDY    64  61  88 S3        29.82R
MERIDIAN       LGT RAIN  65  65 100 S5        29.78F
JACKSON        RAIN      62  57  83 NW13G18   29.78R
MONTGOMERY     CLOUDY    75  61  61 SE12      29.82S
TROY           CLOUDY    71  63  75 S8        29.86R
ASHFORD*         N/A     72  64  78 SW12      29.87R
DOTHAN         CLOUDY    73  62  68 S12       29.91S
PANAMA CITY    CLOUDY    71  66  84 SE10      29.89F

$$




USA.gov is the U.S. government's official web portal to all federal, state and local government web resources and services.